| time (UTC) | temp F | wind direction | speed MPH | gust MPH | rain 1hr in | rain 24hr in | rain mn in | humidity % | barometer mb |
| 20260504190907 | 83 | 161 | 1.0 | 2.0 | 0.00 | 0.00 | 0.00 | 66 | 1011.0 |
| 20260504190403 | 83 | 176 | 0.0 | 0.0 | 0.00 | 0.00 | 0.00 | 67 | 1011.0 |
| 20260504185900 | 83 | 150 | 1.0 | 2.0 | 0.00 | 0.00 | 0.00 | 69 | 1011.0 |
| 20260504185357 | 84 | 181 | 0.0 | 0.0 | 0.00 | 0.00 | 0.00 | 66 | 1010.9 |
| 20260504184853 | 84 | 160 | 1.0 | 2.0 | 0.00 | 0.00 | 0.00 | 66 | 1011.3 |
| 20260504184349 | 83 | 185 | 0.0 | 0.0 | 0.00 | 0.00 | 0.00 | 66 | 1011.3 |
| 20260504183845 | 83 | 153 | 3.0 | 3.0 | 0.00 | 0.00 | 0.00 | 69 | 1011.4 |
| 20260504183342 | 84 | 146 | 0.0 | 2.0 | 0.00 | 0.00 | 0.00 | 68 | 1011.5 |
| 20260504182840 | 84 | 177 | 0.0 | 0.0 | 0.00 | 0.00 | 0.00 | 67 | 1011.3 |
| 20260504182337 | 82 | 142 | 1.0 | 2.0 | 0.00 | 0.00 | 0.00 | 69 | 1011.4 |
| 20260504181834 | 82 | 128 | 2.0 | 3.0 | 0.00 | 0.00 | 0.00 | 68 | 1011.8 |
| 20260504181331 | 82 | 141 | 4.0 | 5.0 | 0.00 | 0.00 | 0.00 | 70 | 1011.6 |
| 20260504180830 | 82 | 151 | 0.0 | 0.0 | 0.00 | 0.00 | 0.00 | 69 | 1011.5 |
| 20260504180328 | 81 | 148 | 1.0 | 3.0 | 0.00 | 0.00 | 0.00 | 72 | 1011.5 |
| 20260504175826 | 80 | 173 | 1.0 | 2.0 | 0.00 | 0.00 | 0.00 | 71 | 1011.8 |
| 20260504175322 | 81 | 136 | 3.0 | 3.0 | 0.00 | 0.00 | 0.00 | 71 | 1011.9 |
| 20260504174821 | 81 | 119 | 2.0 | 3.0 | 0.00 | 0.00 | 0.00 | 72 | 1012.0 |
| 20260504174318 | 80 | 164 | 1.0 | 2.0 | 0.00 | 0.00 | 0.00 | 72 | 1012.0 |
| 20260504173815 | 80 | 135 | 3.0 | 3.0 | 0.00 | 0.00 | 0.00 | 75 | 1012.1 |
| 20260504173311 | 80 | 143 | 1.0 | 2.0 | 0.00 | 0.00 | 0.00 | 75 | 1012.0 |
| 20260504172808 | 82 | 138 | 4.0 | 5.0 | 0.00 | 0.00 | 0.00 | 72 | 1012.2 |
| 20260504172305 | 82 | 126 | 3.0 | 3.0 | 0.00 | 0.00 | 0.00 | 69 | 1012.5 |
| 20260504171800 | 81 | 171 | 0.0 | 0.0 | 0.00 | 0.00 | 0.00 | 71 | 1012.3 |
| 20260504171258 | 81 | 151 | 0.0 | 1.0 | 0.00 | 0.00 | 0.00 | 72 | 1012.3 |
| 20260504170755 | 80 | 193 | 0.0 | 0.0 | 0.00 | 0.00 | 0.00 | 72 | 1012.5 |
| 20260504170252 | 80 | 167 | 0.0 | 0.0 | 0.00 | 0.00 | 0.00 | 73 | 1012.3 |
| 20260504160210 | 77 | 159 | 0.0 | 0.0 | 0.00 | 0.00 | 0.00 | 77 | 1013.1 |
| 20260504151138 | 76 | 121 | 1.0 | 2.0 | 0.00 | 0.00 | 0.00 | 81 | 1013.4 |
| 20260504150636 | 76 | 151 | 1.0 | 1.0 | 0.00 | 0.00 | 0.00 | 82 | 1013.5 |
| 20260504150132 | 76 | 167 | 0.0 | 1.0 | 0.00 | 0.00 | 0.00 | 81 | 1013.6 |
| 20260504141101 | 75 | 126 | 3.0 | 3.0 | 0.00 | 0.00 | 0.00 | 81 | 1013.1 |
| 20260504140558 | 75 | 114 | 2.0 | 3.0 | 0.00 | 0.00 | 0.00 | 82 | 1013.1 |
| 20260504130522 | 73 | 103 | 0.0 | 0.0 | 0.00 | 0.00 | 0.00 | 86 | 1012.6 |
| 20260504110409 | 68 | 109 | 0.0 | 0.0 | 0.00 | 0.00 | 0.00 | 95 | 1011.6 |
| 20260504100326 | 67 | 122 | 0.0 | 0.0 | 0.00 | 0.00 | 0.00 | 98 | 1011.2 |
| 20260504081720 | 69 | 137 | 0.0 | 0.0 | 0.00 | 0.00 | 0.00 | 96 | 1011.6 |
| 20260504081216 | 69 | 137 | 0.0 | 0.0 | 0.00 | 0.00 | 0.00 | 96 | 1011.6 |
| 20260504080713 | 69 | 130 | 0.0 | 0.0 | 0.00 | 0.00 | 0.00 | 95 | 1011.7 |
| 20260504080209 | 69 | 82 | 0.0 | 0.0 | 0.00 | 0.00 | 0.00 | 95 | 1011.3 |
| 20260504070137 | 69 | 117 | 0.0 | 0.0 | 0.00 | 0.00 | 0.00 | 96 | 1011.4 |
| 20260504050526 | 69 | 127 | 0.0 | 0.0 | 0.00 | 0.00 | 0.00 | 98 | 1012.8 |
| 20260504050023 | 69 | 109 | 0.0 | 0.0 | 0.00 | 0.00 | 0.00 | 98 | 1012.9 |
| 20260504045519 | 69 | 116 | 0.0 | 0.0 | 0.00 | 0.00 | 0.00 | 98 | 1012.9 |
| 20260504045015 | 69 | 120 | 0.0 | 0.0 | 0.00 | 0.00 | 0.00 | 98 | 1012.8 |
| 20260504044513 | 69 | 90 | 0.0 | 0.0 | 0.00 | 0.00 | 0.00 | 98 | 1013.0 |
| 20260504044009 | 69 | 117 | 0.0 | 0.0 | 0.00 | 0.00 | 0.00 | 98 | 1012.8 |
| 20260504043506 | 69 | 119 | 0.0 | 0.0 | 0.00 | 0.00 | 0.00 | 98 | 1012.5 |
| 20260504043004 | 69 | 120 | 0.0 | 0.0 | 0.00 | 0.00 | 0.00 | 98 | 1012.6 |
| 20260504042500 | 69 | 128 | 0.0 | 0.0 | 0.00 | 0.00 | 0.00 | 98 | 1012.6 |
| 20260504041957 | 69 | 125 | 1.0 | 1.0 | 0.00 | 0.00 | 0.00 | 99 | 1012.5 |
| 20260504041453 | 69 | 134 | 0.0 | 0.0 | 0.00 | 0.00 | 0.00 | 99 | 1012.6 |
| 20260504040949 | 69 | 131 | 0.0 | 0.0 | 0.00 | 0.00 | 0.00 | 99 | 1012.5 |
| 20260504040447 | 69 | 138 | 1.0 | 1.0 | 0.00 | 0.00 | 0.00 | 99 | 1012.6 |
| 20260504035943 | 69 | 138 | 0.0 | 0.0 | 0.00 | 0.27 | 0.27 | 99 | 1012.8 |
| 20260504035441 | 69 | 125 | 0.0 | 0.0 | 0.00 | 0.27 | 0.27 | 99 | 1012.9 |
| 20260504034937 | 69 | 116 | 0.0 | 0.0 | 0.00 | 0.27 | 0.27 | 99 | 1012.9 |
| 20260504034435 | 69 | 156 | 0.0 | 0.0 | 0.00 | 0.27 | 0.27 | 99 | 1013.0 |
| 20260504033931 | 69 | 149 | 0.0 | 0.0 | 0.00 | 0.27 | 0.27 | 99 | 1012.8 |
| 20260504033429 | 69 | 177 | 0.0 | 0.0 | 0.00 | 0.27 | 0.27 | 99 | 1012.9 |
| 20260504032926 | 69 | 175 | 0.0 | 0.0 | 0.00 | 0.27 | 0.27 | 99 | 1013.1 |
| 20260504032423 | 69 | 145 | 0.0 | 0.0 | 0.00 | 0.27 | 0.27 | 99 | 1013.1 |
| 20260504031920 | 69 | 134 | 0.0 | 0.0 | 0.00 | 0.27 | 0.27 | 99 | 1013.2 |
| 20260504031417 | 69 | 114 | 0.0 | 0.0 | 0.00 | 0.27 | 0.27 | 99 | 1013.5 |
| 20260504030913 | 69 | 116 | 0.0 | 0.0 | 0.00 | 0.27 | 0.27 | 99 | 1013.8 |
| 20260504030410 | 69 | 125 | 0.0 | 0.0 | 0.00 | 0.27 | 0.27 | 99 | 1013.7 |
| 20260504025906 | 69 | 128 | 0.0 | 0.0 | 0.00 | 0.27 | 0.27 | 99 | 1013.7 |
| 20260504025403 | 69 | 135 | 0.0 | 0.0 | 0.00 | 0.27 | 0.27 | 99 | 1013.7 |
| 20260504024900 | 69 | 114 | 0.0 | 0.0 | 0.00 | 0.27 | 0.27 | 98 | 1013.7 |
| 20260504024356 | 69 | 125 | 0.0 | 0.0 | 0.00 | 0.27 | 0.27 | 98 | 1013.6 |
| 20260504023854 | 69 | 106 | 0.0 | 0.0 | 0.00 | 0.27 | 0.27 | 98 | 1013.7 |
| 20260504023350 | 69 | 122 | 0.0 | 0.0 | 0.00 | 0.27 | 0.27 | 98 | 1013.7 |
| 20260504022846 | 69 | 151 | 0.0 | 0.0 | 0.00 | 0.27 | 0.27 | 98 | 1013.5 |
| 20260504022343 | 69 | 133 | 0.0 | 0.0 | 0.07 | 0.27 | 0.27 | 97 | 1013.3 |
| 20260504021840 | 69 | 142 | 0.0 | 0.0 | 0.07 | 0.27 | 0.27 | 97 | 1013.4 |
| 20260504021337 | 69 | 134 | 0.0 | 0.0 | 0.00 | 0.26 | 0.26 | 96 | 1013.2 |
| 20260504020834 | 69 | 128 | 0.0 | 0.0 | 0.12 | 0.26 | 0.26 | 96 | 1013.2 |
| 20260504020331 | 69 | 134 | 0.0 | 0.0 | 0.52 | 0.26 | 0.26 | 95 | 1013.2 |
| 20260504015826 | 70 | 132 | 0.0 | 0.0 | 0.73 | 0.25 | 0.25 | 95 | 1013.2 |
| 20260504015323 | 70 | 153 | 0.0 | 0.0 | 0.50 | 0.19 | 0.19 | 93 | 1013.0 |
| 20260504014819 | 71 | 125 | 0.0 | 0.0 | 0.12 | 0.13 | 0.13 | 91 | 1013.3 |
| 20260504014315 | 71 | 144 | 0.0 | 0.0 | 0.00 | 0.11 | 0.11 | 90 | 1013.0 |
| 20260504013813 | 71 | 157 | 0.0 | 0.0 | 0.00 | 0.11 | 0.11 | 90 | 1012.7 |
| 20260504013311 | 71 | 139 | 0.0 | 0.0 | 0.00 | 0.11 | 0.11 | 90 | 1013.0 |
| 20260504012807 | 71 | 126 | 0.0 | 0.0 | 0.00 | 0.11 | 0.11 | 90 | 1012.9 |
| 20260504012305 | 71 | 129 | 1.0 | 2.0 | 0.00 | 0.11 | 0.11 | 91 | 1012.7 |
| 20260504011802 | 71 | 124 | 2.0 | 2.0 | 0.00 | 0.11 | 0.11 | 90 | 1012.8 |
| 20260504011258 | 71 | 139 | 1.0 | 1.0 | 0.00 | 0.11 | 0.11 | 90 | 1012.7 |
| 20260504010754 | 71 | 151 | 2.0 | 2.0 | 0.00 | 0.11 | 0.11 | 90 | 1012.5 |
| 20260504010250 | 71 | 130 | 0.0 | 0.0 | 0.00 | 0.11 | 0.11 | 90 | 1012.6 |
| 20260504005747 | 71 | 126 | 1.0 | 2.0 | 0.00 | 0.11 | 0.11 | 91 | 1012.4 |
| 20260504005244 | 71 | 116 | 2.0 | 2.0 | 0.00 | 0.11 | 0.11 | 90 | 1012.2 |
| 20260504004742 | 71 | 152 | 0.0 | 0.0 | 0.00 | 0.11 | 0.11 | 90 | 1012.4 |
| 20260504004239 | 71 | 147 | 2.0 | 2.0 | 0.00 | 0.11 | 0.11 | 89 | 1012.5 |
| 20260504003735 | 71 | 135 | 2.0 | 2.0 | 0.00 | 0.11 | 0.11 | 90 | 1012.3 |
| 20260504003232 | 71 | 122 | 1.0 | 2.0 | 0.00 | 0.11 | 0.11 | 89 | 1012.4 |
| 20260504002729 | 71 | 151 | 2.0 | 2.0 | 0.00 | 0.11 | 0.11 | 90 | 1012.3 |
| 20260504002226 | 71 | 125 | 2.0 | 2.0 | 0.00 | 0.11 | 0.11 | 89 | 1012.4 |
| 20260504001724 | 71 | 111 | 2.0 | 2.0 | 0.00 | 0.11 | 0.11 | 89 | 1012.5 |
| 20260504001220 | 71 | 119 | 2.0 | 2.0 | 0.00 | 0.11 | 0.11 | 88 | 1012.6 |
| 20260504000717 | 71 | 152 | 0.0 | 0.0 | 0.00 | 0.11 | 0.11 | 88 | 1012.5 |
| 20260504000214 | 71 | 114 | 2.0 | 2.0 | 0.00 | 0.11 | 0.11 | 89 | 1012.5 |
| 20260503235713 | 71 | 137 | 1.0 | 2.0 | 0.00 | 0.11 | 0.11 | 89 | 1012.2 |
| 20260503235209 | 71 | 145 | 0.0 | 0.0 | 0.00 | 0.11 | 0.11 | 90 | 1012.3 |
| 20260503234707 | 71 | 157 | 0.0 | 0.0 | 0.00 | 0.11 | 0.11 | 90 | 1012.1 |
| 20260503234205 | 71 | 150 | 2.0 | 2.0 | 0.00 | 0.11 | 0.11 | 90 | 1012.1 |
| 20260503233701 | 71 | 120 | 2.0 | 2.0 | 0.00 | 0.11 | 0.11 | 89 | 1012.1 |
| 20260503233157 | 71 | 138 | 1.0 | 2.0 | 0.00 | 0.11 | 0.11 | 89 | 1012.2 |
| 20260503232654 | 71 | 140 | 2.0 | 2.0 | 0.00 | 0.11 | 0.11 | 89 | 1012.2 |
| 20260503232151 | 71 | 126 | 2.0 | 2.0 | 0.00 | 0.11 | 0.11 | 89 | 1012.0 |
| 20260503231650 | 71 | 140 | 0.0 | 0.0 | 0.00 | 0.11 | 0.11 | 89 | 1012.1 |
| 20260503231145 | 71 | 145 | 0.0 | 0.0 | 0.00 | 0.11 | 0.11 | 89 | 1011.9 |
| 20260503230642 | 71 | 149 | 0.0 | 0.0 | 0.00 | 0.11 | 0.11 | 88 | 1011.6 |
| 20260503230139 | 71 | 139 | 2.0 | 2.0 | 0.00 | 0.11 | 0.11 | 89 | 1012.0 |
| 20260503225637 | 71 | 165 | 0.0 | 0.0 | 0.00 | 0.11 | 0.11 | 89 | 1012.0 |
| 20260503225136 | 71 | 126 | 1.0 | 2.0 | 0.00 | 0.11 | 0.11 | 90 | 1011.8 |
| 20260503224634 | 71 | 131 | 3.0 | 3.0 | 0.00 | 0.11 | 0.11 | 90 | 1011.7 |
| 20260503224132 | 72 | 159 | 2.0 | 2.0 | 0.00 | 0.11 | 0.11 | 90 | 1011.7 |
| 20260503223630 | 72 | 157 | 3.0 | 3.0 | 0.00 | 0.11 | 0.11 | 90 | 1012.0 |
| 20260503223126 | 72 | 134 | 2.0 | 2.0 | 0.00 | 0.11 | 0.11 | 92 | 1011.8 |
| 20260503222623 | 72 | 144 | 1.0 | 2.0 | 0.00 | 0.11 | 0.11 | 91 | 1011.8 |
| 20260503222121 | 72 | 148 | 0.0 | 0.0 | 0.00 | 0.11 | 0.11 | 90 | 1011.6 |
| 20260503221619 | 72 | 163 | 2.0 | 2.0 | 0.00 | 0.11 | 0.11 | 90 | 1011.6 |
| 20260503221116 | 72 | 117 | 3.0 | 3.0 | 0.00 | 0.11 | 0.11 | 90 | 1011.7 |
| 20260503220613 | 72 | 138 | 2.0 | 3.0 | 0.00 | 0.11 | 0.11 | 89 | 1012.0 |
| 20260503220109 | 72 | 178 | 0.0 | 0.0 | 0.00 | 0.11 | 0.11 | 90 | 1011.7 |
| 20260503215607 | 72 | 115 | 1.0 | 2.0 | 0.00 | 0.11 | 0.11 | 90 | 1011.7 |
| 20260503215103 | 72 | 181 | 0.0 | 1.0 | 0.00 | 0.11 | 0.11 | 91 | 1011.8 |
| 20260503214602 | 72 | 144 | 1.0 | 2.0 | 0.00 | 0.11 | 0.11 | 90 | 1011.7 |
| 20260503214058 | 73 | 151 | 0.0 | 0.0 | 0.00 | 0.11 | 0.11 | 90 | 1011.7 |
| 20260503213557 | 72 | 135 | 1.0 | 1.0 | 0.00 | 0.11 | 0.11 | 91 | 1011.8 |
| 20260503213053 | 72 | 124 | 2.0 | 3.0 | 0.00 | 0.11 | 0.11 | 91 | 1012.1 |
| 20260503212550 | 72 | 165 | 0.0 | 0.0 | 0.00 | 0.11 | 0.11 | 91 | 1012.0 |
| 20260503212047 | 72 | 178 | 0.0 | 0.0 | 0.00 | 0.11 | 0.11 | 92 | 1012.1 |
| 20260503211545 | 72 | 161 | 0.0 | 0.0 | 0.00 | 0.11 | 0.11 | 92 | 1012.1 |
| 20260503211040 | 72 | 148 | 2.0 | 2.0 | 0.00 | 0.11 | 0.11 | 91 | 1012.1 |
| 20260503210537 | 72 | 143 | 0.0 | 0.0 | 0.00 | 0.11 | 0.11 | 91 | 1012.2 |
| 20260503210033 | 72 | 131 | 2.0 | 2.0 | 0.00 | 0.11 | 0.11 | 89 | 1012.4 |
| 20260503205530 | 73 | 138 | 0.0 | 1.0 | 0.00 | 0.11 | 0.11 | 89 | 1012.3 |
| 20260503205026 | 73 | 160 | 0.0 | 0.0 | 0.00 | 0.11 | 0.11 | 90 | 1012.4 |
| 20260503204523 | 73 | 132 | 2.0 | 3.0 | 0.00 | 0.11 | 0.11 | 89 | 1012.1 |
| 20260503204020 | 73 | 132 | 0.0 | 1.0 | 0.00 | 0.11 | 0.11 | 89 | 1012.3 |
| 20260503203517 | 73 | 145 | 1.0 | 2.0 | 0.00 | 0.11 | 0.11 | 89 | 1012.3 |
| 20260503203014 | 73 | 136 | 1.0 | 2.0 | 0.00 | 0.11 | 0.11 | 89 | 1012.3 |
| 20260503202512 | 73 | 135 | 1.0 | 2.0 | 0.00 | 0.11 | 0.11 | 89 | 1012.2 |
| 20260503202010 | 73 | 125 | 2.0 | 3.0 | 0.00 | 0.11 | 0.11 | 89 | 1011.7 |
| 20260503201508 | 73 | 159 | 1.0 | 3.0 | 0.00 | 0.11 | 0.11 | 88 | 1012.1 |
| 20260503201005 | 73 | 126 | 3.0 | 6.0 | 0.00 | 0.11 | 0.11 | 89 | 1012.1 |
| 20260503200501 | 73 | 114 | 0.0 | 1.0 | 0.00 | 0.11 | 0.11 | 89 | 1012.4 |
| 20260503195957 | 73 | 125 | 3.0 | 3.0 | 0.00 | 0.11 | 0.11 | 89 | 1012.2 |
| 20260503195455 | 73 | 142 | 2.0 | 2.0 | 0.00 | 0.11 | 0.11 | 88 | 1012.6 |
| 20260503194951 | 73 | 126 | 2.0 | 2.0 | 0.00 | 0.11 | 0.11 | 87 | 1012.6 |
| 20260503194449 | 74 | 142 | 3.0 | 3.0 | 0.00 | 0.11 | 0.11 | 87 | 1012.4 |
| 20260503193944 | 74 | 149 | 1.0 | 3.0 | 0.00 | 0.11 | 0.11 | 88 | 1012.4 |
| 20260503193439 | 74 | 144 | 0.0 | 1.0 | 0.00 | 0.11 | 0.11 | 88 | 1012.5 |
| 20260503192935 | 74 | 144 | 2.0 | 5.0 | 0.00 | 0.11 | 0.11 | 86 | 1012.3 |
| 20260503192432 | 73 | 121 | 3.0 | 3.0 | 0.00 | 0.11 | 0.11 | 88 | 1012.6 |
| 20260503191927 | 74 | 150 | 2.0 | 2.0 | 0.00 | 0.11 | 0.11 | 87 | 1012.6 |
| 20260503191425 | 73 | 163 | 2.0 | 2.0 | 0.00 | 0.11 | 0.11 | 88 | 1012.8 |